When you browse on this site, cookies collect data to enhance your experience and personalize the content and advertising you see.
Visit our Privacy Policy to learn more. By continuing to use the site, you agree to this use of cookies and data.
EN

Hourly Weather Pamporovo

Today, 4 July, Saturday

Time Temperature Precipitation Wind Pressure Humidity
00:00 +13°C° 0 mm 1 mps 625 mmHg 85%
01:00 +13°C° 0 mm 1 mps 625 mmHg 86%
02:00 +13°C° 0 mm 1 mps 625 mmHg 86%
03:00 +13°C° 0 mm 1 mps 625 mmHg 86%
04:00 +13°C° 0 mm 1 mps 624 mmHg 85%
05:00 +12°C° 0 mm 1 mps 624 mmHg 85%
06:00 +14°C° 0 mm 1 mps 625 mmHg 80%
07:00 +16°C° 0 mm 1 mps 626 mmHg 75%
08:00 +20°C° 0 mm 1 mps 627 mmHg 70%
09:00 +20°C° 0.3 mm 1 mps 628 mmHg 67%
10:00 +21°C° 0.3 mm 1 mps 628 mmHg 64%
11:00 +21°C° 0.3 mm 2 mps 628 mmHg 61%
12:00 +22°C° 1.3 mm 1 mps 628 mmHg 64%
13:00 +22°C° 1.3 mm 1 mps 628 mmHg 67%
14:00 +22°C° 1.3 mm 1 mps 628 mmHg 70%
15:00 +22°C° 1.9 mm 1 mps 627 mmHg 72%
16:00 +21°C° 1.9 mm 1 mps 627 mmHg 74%
17:00 +20°C° 1.9 mm 1 mps 626 mmHg 76%
18:00 +19°C° 1.2 mm 1 mps 626 mmHg 80%
19:00 +16°C° 1.2 mm 1 mps 625 mmHg 83%
20:00 +15°C° 1.2 mm 1 mps 625 mmHg 87%
21:00 +14°C° 1.3 mm 1 mps 625 mmHg 89%
22:00 +14°C° 1.3 mm 1 mps 625 mmHg 90%
23:00 +13°C° 1.3 mm 1 mps 625 mmHg 91%

Tomorrow, 5 July, Sunday

Time Temperature Precipitation Wind Pressure Humidity
00:00 +13°C° 0.4 mm 1 mps 625 mmHg 91%
01:00 +13°C° 0.4 mm 1 mps 624 mmHg 90%
02:00 +12°C° 0.4 mm 1 mps 624 mmHg 90%
03:00 +12°C° 0.2 mm 1 mps 624 mmHg 90%
04:00 +12°C° 0.2 mm 1 mps 624 mmHg 90%
05:00 +12°C° 0.2 mm 1 mps 624 mmHg 90%
06:00 +14°C° 0.3 mm 1 mps 624 mmHg 87%
07:00 +15°C° 0.3 mm 1 mps 625 mmHg 85%
08:00 +18°C° 0.3 mm 1 mps 626 mmHg 82%
09:00 +19°C° 1.4 mm 1 mps 626 mmHg 80%
10:00 +18°C° 1.4 mm 2 mps 626 mmHg 79%
11:00 +19°C° 1.4 mm 2 mps 626 mmHg 77%
12:00 +19°C° 1.4 mm 2 mps 626 mmHg 76%
13:00 +19°C° 1.4 mm 2 mps 626 mmHg 75%
14:00 +20°C° 1.4 mm 2 mps 626 mmHg 74%
15:00 +19°C° 1.4 mm 2 mps 626 mmHg 76%
16:00 +19°C° 1.4 mm 2 mps 625 mmHg 78%
17:00 +18°C° 1.4 mm 2 mps 625 mmHg 80%
18:00 +17°C° 0.5 mm 2 mps 624 mmHg 84%
19:00 +16°C° 0.5 mm 2 mps 624 mmHg 87%
20:00 +14°C° 0.5 mm 2 mps 623 mmHg 90%
21:00 +14°C° 0 mm 2 mps 623 mmHg 90%
22:00 +13°C° 0 mm 2 mps 623 mmHg 91%
23:00 +13°C° 0 mm 2 mps 623 mmHg 91%

Day after tomorrow, 6 July, Monday

Time Temperature Precipitation Wind Pressure Humidity
00:00 +13°C° 0 mm 2 mps 623 mmHg 91%
01:00 +13°C° 0 mm 2 mps 623 mmHg 92%
02:00 +12°C° 0 mm 2 mps 623 mmHg 92%
03:00 +12°C° 0 mm 2 mps 623 mmHg 92%
04:00 +12°C° 0 mm 2 mps 622 mmHg 92%
05:00 +12°C° 0 mm 2 mps 622 mmHg 92%
06:00 +14°C° 0 mm 2 mps 623 mmHg 87%
07:00 +15°C° 0 mm 2 mps 624 mmHg 82%
08:00 +17°C° 0 mm 3 mps 624 mmHg 77%
09:00 +18°C° 0 mm 3 mps 625 mmHg 68%
10:00 +20°C° 0 mm 3 mps 625 mmHg 60%
11:00 +21°C° 0 mm 3 mps 625 mmHg 52%
12:00 +22°C° 0 mm 3 mps 625 mmHg 51%
13:00 +22°C° 0 mm 3 mps 625 mmHg 50%
14:00 +24°C° 0 mm 3 mps 625 mmHg 49%
15:00 +22°C° 0 mm 3 mps 624 mmHg 52%
16:00 +22°C° 0 mm 3 mps 624 mmHg 55%
17:00 +21°C° 0 mm 3 mps 624 mmHg 58%
18:00 +19°C° 0.1 mm 3 mps 623 mmHg 65%
19:00 +17°C° 0.1 mm 2 mps 622 mmHg 73%
20:00 +15°C° 0.1 mm 2 mps 622 mmHg 80%
21:00 +15°C° 0.1 mm 2 mps 622 mmHg 83%
22:00 +14°C° 0.1 mm 2 mps 622 mmHg 86%
23:00 +14°C° 0.1 mm 2 mps 622 mmHg 89%

7 July, Tuesday

Time Temperature Precipitation Wind Pressure Humidity
00:00 +14°C° 0 mm 2 mps 621 mmHg 90%
01:00 +13°C° 0 mm 2 mps 621 mmHg 92%
02:00 +13°C° 0 mm 2 mps 621 mmHg 93%
03:00 +13°C° 0 mm 2 mps 621 mmHg 92%
04:00 +13°C° 0 mm 1 mps 621 mmHg 92%
05:00 +12°C° 0 mm 1 mps 621 mmHg 92%
06:00 +14°C° 0 mm 2 mps 622 mmHg 85%
07:00 +16°C° 0 mm 2 mps 622 mmHg 78%
08:00 +18°C° 0 mm 2 mps 623 mmHg 71%
09:00 +20°C° 0 mm 2 mps 624 mmHg 63%
10:00 +21°C° 0 mm 2 mps 625 mmHg 55%
11:00 +22°C° 0 mm 3 mps 625 mmHg 47%
12:00 +24°C° 0 mm 3 mps 625 mmHg 47%
13:00 +24°C° 0 mm 3 mps 625 mmHg 47%
14:00 +24°C° 0 mm 3 mps 625 mmHg 47%
15:00 +24°C° 0.4 mm 2 mps 625 mmHg 52%
16:00 +23°C° 0.4 mm 2 mps 625 mmHg 56%
17:00 +21°C° 0.4 mm 2 mps 625 mmHg 61%
18:00 +19°C° 0.6 mm 2 mps 624 mmHg 69%
19:00 +17°C° 0.6 mm 2 mps 623 mmHg 77%
20:00 +15°C° 0.6 mm 1 mps 623 mmHg 85%
21:00 +15°C° 0.6 mm 1 mps 623 mmHg 86%
22:00 +14°C° 0.6 mm 1 mps 624 mmHg 88%
23:00 +14°C° 0.6 mm 1 mps 624 mmHg 89%

8 July, Wednesday

Time Temperature Precipitation Wind Pressure Humidity
00:00 +13°C° 1.4 mm 1 mps 624 mmHg 91%
01:00 +13°C° 1.4 mm 1 mps 624 mmHg 93%
02:00 +13°C° 1.4 mm 1 mps 624 mmHg 94%
03:00 +12°C° 0.1 mm 1 mps 624 mmHg 94%
04:00 +12°C° 0.1 mm 1 mps 624 mmHg 95%
05:00 +12°C° 0.1 mm 1 mps 624 mmHg 95%
06:00 +13°C° 0 mm 1 mps 625 mmHg 91%
07:00 +15°C° 0 mm 1 mps 626 mmHg 87%
08:00 +16°C° 0 mm 1 mps 627 mmHg 84%
09:00 +17°C° 0.3 mm 2 mps 627 mmHg 79%
10:00 +18°C° 0.3 mm 2 mps 628 mmHg 74%
11:00 +19°C° 0.3 mm 2 mps 629 mmHg 70%
12:00 +19°C° 1.1 mm 2 mps 629 mmHg 71%
13:00 +19°C° 1.1 mm 2 mps 629 mmHg 72%
14:00 +19°C° 1.1 mm 2 mps 628 mmHg 74%
15:00 +19°C° 0.9 mm 2 mps 628 mmHg 75%
16:00 +19°C° 0.9 mm 2 mps 628 mmHg 76%
17:00 +18°C° 0.9 mm 2 mps 628 mmHg 77%
18:00 +17°C° 0.2 mm 2 mps 627 mmHg 83%
19:00 +15°C° 0.2 mm 1 mps 627 mmHg 88%
20:00 +14°C° 0.2 mm 1 mps 627 mmHg 93%
21:00 +13°C° 0 mm 1 mps 627 mmHg 94%
22:00 +13°C° 0 mm 1 mps 627 mmHg 94%
23:00 +12°C° 0 mm 1 mps 627 mmHg 94%

9 July, Thursday

Time Temperature Precipitation Wind Pressure Humidity
00:00 +12°C° 0.1 mm 1 mps 628 mmHg 95%
01:00 +12°C° 0.1 mm 1 mps 628 mmHg 95%
02:00 +12°C° 0.1 mm 1 mps 628 mmHg 96%
03:00 +12°C° 0 mm 1 mps 628 mmHg 95%
04:00 +12°C° 0 mm 1 mps 628 mmHg 95%
05:00 +12°C° 0 mm 1 mps 628 mmHg 95%
06:00 +13°C° 0 mm 1 mps 628 mmHg 91%
07:00 +14°C° 0 mm 1 mps 629 mmHg 87%
08:00 +15°C° 0 mm 1 mps 629 mmHg 84%
09:00 +16°C° 0.1 mm 2 mps 630 mmHg 78%
10:00 +17°C° 0.1 mm 2 mps 630 mmHg 72%
11:00 +18°C° 0.1 mm 2 mps 630 mmHg 67%
12:00 +18°C° 0.1 mm 2 mps 630 mmHg 66%
13:00 +19°C° 0.1 mm 2 mps 630 mmHg 66%
14:00 +19°C° 0.1 mm 2 mps 630 mmHg 65%
15:00 +19°C° 0.1 mm 2 mps 630 mmHg 66%
16:00 +18°C° 0.1 mm 2 mps 630 mmHg 66%
17:00 +18°C° 0.1 mm 2 mps 629 mmHg 67%
18:00 +16°C° 0 mm 2 mps 629 mmHg 74%
19:00 +15°C° 0 mm 1 mps 628 mmHg 81%
20:00 +13°C° 0 mm 1 mps 627 mmHg 87%
21:00 +12°C° 0 mm 1 mps 627 mmHg 89%
22:00 +11°C° 0 mm 1 mps 627 mmHg 90%
23:00 +11°C° 0 mm 1 mps 627 mmHg 91%
Show more